SCP
0 0 0 0 0 0 0 0 0 0 0 0 0 0 0 0 0 0 0 0 0 0 0 0 0 1 1 1 1 1 1 1 1 1 1 1 1 1 1 1 1 1 0 0
0 0 0 0 0 0 0 0 0 0 0 0 0 0 0 0 0 0 0 0 0 0 0 1 1 1 1 1 1 1 1 1 1 1 1 1 1 1 0 1 1 1 1 0
0 0 0 0 0 0 0 0 0 0 0 0 0 0 0 0 0 0 0 0 0 0 1 1 1 1 1 1 1 1 1 1 1 1 1 1 1 1 1 1 1 1 1 1
0 0 0 0 0 0 0 0 0 0 0 0 0 0 0 0 0 0 0 0 0 0 1 1 1 1 1 1 1 1 2 2 1 1 1 1 1 1 1 1 1 1 1 1
0 0 0 0 0 0 0 0 0 0 0 0 0 0 0 0 0 0 0 0 0 0 1 1 1 1 1 1 1 2 2 2 2 1 1 1 1 1 1 1 1 1 1 1
0 0 0 0 0 0 0 0 0 0 0 0 0 0 0 0 0 0 0 0 0 0 1 1 1 1 1 1 1 2 2 2 2 2 1 1 1 1 1 1 1 1 1 1
0 0 0 0 0 0 0 0 0 0 0 0 0 0 0 0 0 0 0 0 0 1 1 1 1 1 1 1 1 1 2 2 2 2 1 1 1 1 1 1 1 1 1 1
0 0 0 0 0 0 0 0 0 0 0 0 0 0 0 0 0 0 0 0 1 1 1 1 1 1 1 1 1 1 2 2 2 1 1 1 1 1 1 1 1 1 1 1
0 0 0 0 0 0 0 0 0 0 0 0 0 0 0 0 0 0 0 0 1 1 1 1 1 1 1 1 1 1 1 2 2 1 1 1 1 1 1 1 1 1 1 1
0 0 0 0 0 0 0 0 0 0 0 0 0 0 0 0 0 0 0 0 1 1 1 1 1 1 1 1 1 1 1 2 1 1 1 1 1 1 1 1 1 1 1 1
0 0 0 0 0 0 0 0 0 0 0 0 0 0 0 0 0 0 0 0 1 1 1 1 1 1 1 1 1 1 1 1 1 1 1 1 1 1 1 1 1 1 1 1
0 0 0 0 0 0 0 0 0 0 0 0 0 0 0 0 0 0 0 1 1 1 1 1 1 1 1 1 1 1 1 1 1 1 1 1 1 1 1 1 1 1 1 1
0 0 0 0 0 0 0 0 0 0 0 0 0 0 0 0 0 0 1 1 1 1 1 1 1 1 1 1 1 1 1 1 1 1 1 1 1 1 1 1 1 1 1 1
0 0 0 0 0 0 0 0 0 0 0 0 0 0 0 0 0 1 1 1 1 1 1 1 1 2 2 2 2 2 2 2 2 2 1 1 1 1 1 1 1 1 1 1
0 0 0 0 0 0 0 0 0 0 0 0 0 0 0 0 1 1 1 1 1 1 1 1 2 2 2 2 2 2 2 2 2 2 1 1 1 1 1 1 1 1 1 1
0 0 0 0 0 0 0 0 0 0 0 0 0 0 0 0 1 1 1 1 1 1 1 2 2 2 2 2 2 2 2 2 2 2 2 1 1 1 1 1 1 1 1 1
0 0 0 0 0 0 0 0 0 0 0 0 0 0 0 1 1 1 1 1 1 1 1 2 2 2 2 2 3 2 2 2 2 2 2 2 2 2 2 2 2 2 2 2
0 0 0 0 0 0 0 0 0 0 0 0 0 0 0 1 1 1 1 1 1 2 2 2 2 2 2 2 3 3 2 2 2 2 2 2 2 2 2 2 2 2 2 2
0 0 0 0 0 0 0 0 0 0 0 0 0 0 1 1 1 1 1 1 2 2 2 2 3 3 3 3 3 3 2 2 2 2 2 2 2 2 2 2 2 2 2 2
0 0 0 0 0 0 0 0 0 0 0 0 0 1 1 1 1 1 1 2 2 2 3 3 3 3 3 3 3 3 3 3 3 3 3 3 2 2 2 2 2 2 2 2
0 0 0 0 0 0 0 0 0 0 1 1 1 1 1 1 1 1 2 2 2 3 3 3 3 3 4 4 3 3 3 3 3 3 3 3 3 3 3 3 2 2 2 2
0 0 0 0 0 0 0 0 1 1 1 1 1 1 1 1 1 2 2 2 3 3 3 3 3 3 4 4 4 4 4 3 3 3 3 3 3 3 3 3 3 2 2 2
0 0 0 0 0 0 1 1 1 1 1 1 1 1 1 1 1 2 2 2 2 3 3 3 3 3 4 4 4 4 4 4 4 4 4 4 3 3 3 3 3 2 2 2
0 0 0 0 0 1 1 1 1 1 1 1 1 1 1 1 2 2 2 2 2 2 2 3 3 3 4 4 4 4 4 4 4 4 4 4 3 3 3 2 2 2 2 1
0 0 0 0 1 1 1 1 1 1 1 1 1 1 1 2 2 2 2 2 2 2 2 3 3 3 4 4 4 4 4 4 4 4 4 3 3 3 2 2 1 1 1 1
0 0 0 1 1 1 1 1 0 1 1 1 1 1 2 2 2 2 2 2 2 2 3 3 3 3 3 4 4 4 4 4 4 4 4 3 3 2 2 1 1 0 -1 -0
Wind_Speed
9 7 8 10 9 8 6 4 4 6 7 5 8 11 14 12 11 13 13 12 11 10 11 10 9 9 9 8 6 5 4 4 2 1 2 1 2 1 1 1 3 2 0 1
9 11 12 11 9 8 7 5 3 5 7 5 6 9 13 12 11 12 13 13 13 12 11 11 9 8 8 8 7 5 4 4 3 2 1 1 1 1 1 1 3 2 1 1
11 10 10 10 8 7 7 5 4 4 4 5 4 6 11 12 11 11 12 12 13 13 12 11 9 7 8 8 8 6 5 5 4 3 2 1 1 0 1 1 2 1 1 1
11 12 9 9 8 7 6 5 6 5 5 4 6 5 8 10 11 12 11 12 12 13 13 12 11 9 8 8 8 6 6 5 4 3 2 2 2 1 1 1 2 1 1 1
12 12 11 10 8 7 6 6 7 7 6 6 6 4 5 9 10 12 12 12 12 13 13 12 11 10 8 8 8 8 7 5 5 3 2 2 1 1 1 2 3 1 0 0
11 10 10 9 8 7 7 8 9 9 7 8 6 5 5 8 9 10 12 12 12 13 13 12 11 10 8 8 8 8 7 6 5 4 3 2 1 1 1 1 1 1 1 1
13 12 10 8 9 10 10 8 5 6 6 6 6 6 4 7 10 11 12 13 13 13 13 13 12 11 9 8 8 8 8 7 6 5 3 3 2 1 1 1 1 1 1 1
14 13 13 11 11 9 11 11 7 6 6 7 7 5 5 7 8 9 11 11 11 12 13 13 12 11 10 9 8 8 8 7 6 5 4 3 3 2 1 1 1 1 0 1
10 11 12 11 11 11 11 11 11 9 9 8 5 5 6 6 7 9 11 12 12 11 13 13 13 12 11 10 9 9 9 7 6 5 4 3 3 2 1 1 1 0 1 1
9 8 10 12 11 12 12 11 9 8 7 8 7 6 6 9 8 8 8 10 11 11 13 13 11 11 10 9 10 9 9 8 6 5 4 4 3 2 1 1 1 1 2 2
12 10 10 11 12 12 12 13 10 7 7 7 7 3 4 8 8 9 9 8 9 11 12 12 11 11 11 10 10 9 9 8 7 6 5 4 4 4 3 2 1 1 2 1
9 9 9 11 11 11 11 12 11 8 6 7 7 3 3 8 10 9 9 8 8 9 10 11 12 11 10 9 9 9 9 9 8 6 6 5 4 4 4 3 2 2 3 2
7 7 9 11 11 13 13 13 12 10 8 8 8 5 3 5 7 7 7 7 7 7 8 8 9 9 9 9 8 9 8 8 8 7 7 5 4 4 4 3 3 3 3 3
5 8 11 11 8 9 13 14 13 12 9 10 10 7 4 4 5 5 6 6 7 8 7 7 8 8 8 8 8 8 8 9 8 7 7 6 5 4 4 3 3 3 4 3
7 10 13 14 13 11 11 13 14 14 13 11 9 9 5 4 5 5 5 5 5 7 7 8 8 7 8 8 8 8 8 8 8 7 7 6 5 4 4 4 4 4 3 4
6 8 11 14 15 14 14 14 14 15 14 14 11 9 5 3 4 5 4 4 4 5 5 7 8 8 7 8 9 8 8 8 8 8 7 6 6 5 5 4 4 4 4 4
7 7 10 12 13 13 15 14 14 13 13 12 11 8 4 2 3 5 4 2 2 3 4 5 7 8 7 7 7 8 8 8 8 7 7 7 7 6 5 5 5 5 5 4
7 7 7 11 12 16 11 10 11 12 11 9 8 5 2 2 3 4 4 3 2 1 2 4 5 7 8 7 8 7 8 9 8 8 8 7 7 6 5 5 5 5 5 4
7 6 8 10 13 15 11 10 10 10 8 6 5 3 2 2 3 4 3 2 1 1 1 2 4 6 7 8 8 8 8 9 9 9 8 8 8 7 6 5 5 5 5 5
9 7 9 11 13 13 9 8 7 8 8 3 3 2 2 2 4 3 3 2 2 2 1 1 2 5 6 7 8 8 8 8 9 9 8 8 7 7 7 6 5 5 5 5
12 11 13 13 14 10 7 5 6 9 3 1 1 1 1 1 3 3 4 4 3 2 2 1 2 4 5 7 7 7 7 7 7 7 8 7 7 6 6 5 4 5 5 5
11 11 12 12 15 10 3 5 3 1 3 3 2 1 1 2 3 3 3 4 3 2 2 1 2 3 4 6 7 6 6 6 6 7 8 8 7 7 7 6 5 5 6 6
10 8 6 7 6 0 3 2 3 3 2 3 2 2 1 0 1 1 2 2 1 2 1 0 1 3 4 5 6 7 5 6 6 7 7 7 7 6 6 7 6 6 5 5
8 6 7 6 5 3 2 1 1 1 1 2 2 2 3 2 1 1 2 1 1 1 1 0 1 2 3 4 5 6 6 6 7 7 7 7 7 6 6 4 5 5 5 5
6 6 7 7 6 5 4 3 3 3 3 3 2 3 3 2 1 1 2 2 1 1 1 1 1 2 2 4 4 5 6 6 7 7 7 7 7 6 5 4 2 3 2 1
7 6 7 6 3 4 3 2 3 3 4 4 3 3 4 3 3 2 2 2 1 2 1 1 2 2 2 3 4 4 5 6 7 7 7 6 6 6 6 6 5 9 6 8
Wind_Direction
213 226 222 220 217 229 230 220 183 162 166 174 150 150 160 175 173 163 165 165 168 166 161 158 159 152 146 143 144 145 148 138 148 153 171 165 157 164 155 144 120 117 79 75
211 226 227 226 221 230 236 229 204 157 168 182 166 166 162 173 183 173 169 169 167 166 161 158 160 159 153 149 149 149 151 154 171 164 169 177 143 159 145 105 114 131 132 114
222 234 228 223 225 229 239 236 229 201 186 188 173 187 168 171 179 172 167 167 167 165 161 157 162 166 164 159 157 166 160 156 174 164 171 186 141 118 72 101 120 145 151 141
220 235 237 233 228 240 241 244 249 231 221 216 207 201 169 169 176 171 170 170 171 168 164 163 166 169 170 163 162 157 152 153 158 163 186 188 179 170 160 145 116 112 65 79
222 223 228 234 231 239 243 251 260 257 245 240 215 227 171 171 180 175 173 173 172 167 164 163 165 165 169 165 159 153 146 146 148 165 186 201 208 160 119 103 105 108 89 326
238 230 228 236 228 237 245 244 251 254 250 240 221 225 186 178 180 179 169 168 164 159 156 155 157 152 156 158 153 149 142 145 153 168 177 180 219 164 108 111 133 164 158 181
227 228 221 230 227 222 231 235 239 245 244 240 228 219 176 155 167 170 164 165 162 157 155 155 156 154 155 156 149 147 146 152 159 169 175 172 191 186 177 193 178 207 173 147
216 217 212 214 228 227 223 234 236 240 245 247 230 214 165 154 153 155 152 149 155 158 156 157 158 156 158 158 152 147 145 151 160 167 166 164 172 187 190 191 214 183 120 98
226 219 203 207 222 237 234 232 241 248 260 268 239 178 168 162 154 148 152 153 156 164 158 157 159 159 159 158 155 153 147 151 155 156 156 152 159 178 187 139 161 51 67 100
255 247 212 200 215 229 249 253 251 246 255 259 249 221 185 165 158 153 164 158 158 165 159 153 155 152 154 154 152 152 149 149 150 156 163 160 155 152 140 108 118 80 64 66
243 246 230 208 210 223 226 239 250 266 264 258 263 237 180 153 157 163 166 161 161 160 159 154 154 152 155 156 156 153 150 150 152 154 153 140 135 142 139 132 121 116 101 102
235 246 241 226 217 231 243 242 243 250 263 269 274 281 136 148 167 167 161 158 153 152 152 151 152 152 152 154 154 151 153 154 153 152 146 143 133 129 132 137 133 129 123 120
238 247 240 230 221 216 231 239 245 251 254 254 253 232 159 142 151 147 139 142 136 135 132 143 147 150 152 152 147 150 154 154 153 151 149 143 133 127 124 123 129 130 127 125
260 245 250 244 234 226 222 234 240 246 248 249 244 230 184 148 129 124 122 129 139 141 144 149 143 147 148 147 148 151 154 154 151 149 151 145 139 134 132 128 124 131 132 127
247 242 251 262 267 260 245 235 232 236 246 254 256 246 203 162 145 132 127 147 160 156 159 152 151 149 152 152 152 153 155 151 150 150 151 147 144 142 139 135 128 127 134 132
248 264 255 255 257 260 256 246 240 237 238 247 257 264 260 169 140 127 142 168 177 174 167 161 156 154 157 159 161 158 155 153 152 155 153 149 150 151 150 146 139 135 130 119
220 251 255 253 248 253 247 243 241 242 241 241 246 250 239 200 149 144 141 159 188 186 164 163 163 160 166 165 161 161 157 155 156 158 157 157 155 156 160 160 148 144 137 127
233 241 250 250 251 245 244 247 241 241 243 249 247 243 241 206 147 131 134 148 167 160 171 162 165 161 165 163 160 161 162 161 163 163 163 163 162 160 152 148 144 143 138 134
225 226 245 246 244 246 241 243 247 242 241 250 268 263 235 221 172 153 119 98 121 119 86 149 165 164 163 164 164 163 169 171 170 171 170 168 165 160 156 151 147 145 143 141
210 211 234 244 245 244 239 241 249 244 231 236 261 270 269 249 229 169 115 108 98 66 62 107 169 165 162 161 163 169 176 177 177 174 169 165 163 162 160 153 151 151 149 147
206 207 225 242 248 247 269 254 228 231 223 40 325 355 324 336 358 60 72 76 91 99 90 93 151 159 163 160 168 175 179 181 175 165 158 159 160 161 155 151 154 155 152 140
213 213 218 234 245 242 286 252 235 64 47 35 13 346 33 33 43 55 64 78 82 81 87 103 141 164 163 165 171 180 184 172 163 160 159 161 163 170 162 156 155 154 146 144
224 223 225 229 242 10 8 29 75 64 13 340 339 324 329 311 139 97 77 82 95 92 66 152 172 175 168 173 177 183 176 161 161 162 163 163 161 159 156 159 161 162 164 169
225 230 244 245 229 234 237 338 25 334 293 306 314 307 305 266 198 158 135 126 128 129 138 138 174 194 178 174 179 177 170 167 163 164 163 160 157 159 152 156 162 168 173 173
271 247 241 246 246 247 246 272 294 308 310 305 314 311 311 301 263 187 164 166 174 189 196 193 181 192 188 171 168 170 167 165 166 164 163 165 166 162 152 138 99 146 104 130
260 258 247 250 266 263 254 263 287 284 285 291 298 295 293 283 271 239 201 182 193 194 205 208 196 195 196 166 155 162 167 168 168 171 173 174 172 164 159 143 112 60 77 84